User: anonymous   Login
Location: Unspecified
(0.0000°N, 0.0000°E)
Time: 09:49:33
(UTC+02:00)
Language:

NOAA 12 - Orbit

View from above orbital plane
View from above orbital plane
View from above satellite
View from above satellite

Ground track
Ground track

The orbit data is extracted from the following two-line orbital elements,

1 21263U 91032A   16151.49532925  .00000033  00000-0  32275-4 0  9991
2 21263  98.5964 177.4897 0012924 322.8617  37.1667 14.25812284302199
Epoch (UTC): 30 May 2016 11:53:16
Eccentricity: 0.0012924
inclination: 98.5964°
perigee height: 796 km
apogee height: 815 km
right ascension of ascending node: 177.4897°
argument of perigee: 322.8617°
revolutions per day: 14.25812284
mean anomaly at epoch: 37.1667°
orbit number at epoch: 30219

The dashed part of the orbit path shows where the satellite is in the earth's shadow,  

DLR